Location: Rorokoko Stream
(40.9500°S, 175.8333°E)
Time: 23:36:15
(UTC+00:00)

Daily predictions for brighter satellites

Satellite Brightness Start Highest point End
(mag) Time Altitude Azimuth Time Altitude Azimuth Time Altitude Azimuth
USA 234 4.0 12:13:21 10° SE 12:19:37 47° SSW 12:21:01 41° WSW
USA 281 4.4 12:34:24 10° SE 12:38:34 32° ESE 12:38:34 32° ESE
CZ-2D R/B 4.3 12:42:22 17° ESE 12:42:25 17° ESE 12:45:38 10° SSE
USA 59 Rocket 1.7 12:40:29 10° SW 12:50:01 83° S 12:50:01 83° S
IDEFIX/ARIANE 42P 4.1 12:53:01 33° S 12:53:01 33° S 12:55:52 10° S
ADEOS II 4.5 12:51:30 14° ESE 12:52:12 15° ESE 12:55:02 10° SSE
Resurs 1-4 Rocket 3.6 13:14:26 32° SE 13:14:26 32° SE 13:18:25 10° S
ACS3 Solar Sail 2.3 13:33:29 54° S 13:33:29 54° S 13:38:05 10° S
H-2A R/B 3.7 13:40:23 27° ESE 13:40:23 27° ESE 13:44:23 10° S
COSMOS 2455 3.5 13:38:57 10° SSW 13:43:29 51° S 13:43:29 51° S
Cosmos 1833 Rocket 3.6 14:03:27 42° SSW 14:03:27 42° SSW 14:07:49 10° SSE
Cosmos 1980 Rocket 3.3 13:58:31 10° S 14:03:54 40° ESE 14:05:19 34° E
ADEOS Rocket 3.1 14:08:00 76° SW 14:08:00 76° SW 14:14:28 10° SSW
NOSS 3-1 (A) 3.6 14:03:50 10° SSW 14:10:13 61° SE 14:10:13 61° SE
Cosmos 1697 Rocket 3.6 14:08:44 10° SSW 14:12:21 41° SSW 14:12:21 41° SSW
Cosmos 962 Rocket 4.4 14:15:15 10° S 14:21:28 80° E 14:21:28 80° E
CZ-2D R/B 3.0 14:23:37 40° SW 14:23:37 40° SW 14:27:04 10° SSW
ATLAS 2AS CENTAUR R/B 3.4 14:24:00 41° NE 14:24:57 43° ENE 14:31:43 10° SE
USA 281 3.8 14:18:50 10° S 14:24:58 42° WSW 14:25:25 41° WSW
ALOS 3.7 14:29:13 31° SSW 14:29:13 31° SSW 14:31:40 10° SSW
Meteor 1-21 4.3 14:30:40 76° SSW 14:30:40 76° SSW 14:36:04 10° S
ADEOS II 2.6 14:32:19 53° SSW 14:32:19 53° SSW 14:36:23 10° SSW
Cosmos 1763 Rocket 4.5 14:35:02 37° ENE 14:35:23 38° ENE 14:40:17 10° SE
Timation 1 Rocket 4.4 14:37:20 66° SW 14:37:20 66° SW 14:43:14 10° SSE
CZ-2C R/B 3.8 14:33:09 10° S 14:36:57 30° SW 14:36:57 30° SW
USA 59 Rocket 3.2 14:31:43 10° SW 14:35:34 19° WSW 14:35:34 19° WSW
H-2A R/B 2.9 14:43:36 48° S 14:43:36 48° S 14:46:52 10° S
COSMOS 2406 4.2 14:41:33 34° NE 14:42:35 37° ENE 14:47:49 10° SE
Resurs 1-4 Rocket 3.6 14:55:29 24° WSW 14:55:29 24° WSW 14:58:06 10° SW
Cosmos 1777 Rocket 4.3 14:48:58 10° SSW 14:54:15 65° ESE 14:55:50 43° NE
Lacrosse 5 rocket 3.4 14:57:00 18° E 14:57:00 18° E 14:58:35 10° ESE
Cosmos 1486 Rocket 3.9 14:52:40 10° SSW 14:58:01 86° ESE 14:58:34 72° NNE
Cosmos 44 4.5 14:59:56 30° SW 14:59:56 30° SW 15:03:40 10° SSE
Cosmos 2082 Rocket 2.0 14:59:37 74° WNW 15:00:03 80° WSW 15:05:49 10° SSE
Cosmos 1959 Rocket 4.3 14:55:15 10° S 15:01:32 82° W 15:02:50 58° N
Cosmos 540 Rocket 3.8 15:02:39 53° NE 15:03:24 59° ENE 15:08:31 10° SSE
Cosmos 2369 4.0 15:00:34 10° SSW 15:06:21 68° ESE 15:12:04 10° NNE
Cosmos 2366 rocket 3.9 15:01:15 10° SSW 15:07:26 64° W 15:08:19 58° NW
Meteor 2-15 4.4 15:03:24 10° S 15:09:40 90° NW 15:12:01 41° N
Meteor 1-12 Rocket 4.3 15:04:06 10° SSW 15:09:58 62° W 15:10:25 60° WNW
Cosmos 2341 Rocket 4.1 15:05:39 10° SSW 15:11:56 55° W 15:12:45 52° WNW
H-2A R/B 3.6 15:10:51 10° SE 15:14:06 30° E 15:14:35 28° ENE
ARGOS 3.1 15:12:22 44° NNE 15:14:12 90° W 15:19:44 10° SSW
SL-16 R/B 3.9 15:09:23 10° S 15:14:31 33° ESE 15:19:36 10° ENE
ACS3 Solar Sail 3.7 15:17:15 13° WSW 15:17:15 13° WSW 15:18:32 10° SW
CZ-3 R/B 4.1 14:32:23 10° WNW 15:16:25 56° NNW 15:27:49 10° ENE
H-2A R/B 3.1 15:20:53 28° WSW 15:20:53 28° WSW 15:23:57 10° SSW
BlueWalker 3 3.9 15:17:22 10° SSW 15:20:34 27° SSE 15:23:44 10° E
Cosmos 2333 Rocket 3.9 15:21:35 10° S 15:26:50 34° ESE 15:32:03 10° ENE
Cosmos 1354 Rocket 4.2 15:21:46 10° SSW 15:27:05 71° ESE 15:32:17 10° NNE
Okean 3 4.2 15:28:50 39° SW 15:28:50 39° SW 15:32:11 10° S
MOZ.5/SAFIR/RUBIN 5/SL-8 3.7 15:32:29 10° SSE 15:37:13 83° ENE 15:38:48 41° N
Cosmos 990 Rocket 4.0 15:33:30 10° SSW 15:38:45 82° ESE 15:43:58 10° NNE
CZ-2C R/B 2.4 15:41:04 20° N 15:44:42 80° WNW 15:49:56 10° SSW
Cosmos 2322 Rocket 4.0 15:39:43 10° S 15:44:52 33° ESE 15:49:59 10° ENE
Cosmos 220 Rocket 3.7 15:44:30 58° NW 15:45:11 75° WSW 15:49:19 10° SSE
Cosmos 1980 Rocket 3.1 15:42:50 10° SW 15:46:57 28° W 15:46:57 28° W
Nadezhda 3 Rocket 4.0 15:46:25 29° NNW 15:49:50 71° W 15:56:08 10° S
Cosmos 1939 Rocket 3.2 15:50:25 10° NNE 15:54:08 59° ESE 15:57:53 10° S
Geosat 4.2 15:50:27 10° SSE 15:55:30 69° ENE 15:58:36 23° NNW
Cosmos 1934 Rocket 4.1 15:53:46 10° S 15:59:56 78° E 16:06:00 10° N
Cosmos 1818 4.2 15:55:49 10° SSW 16:01:11 59° SE 16:06:29 10° NE
SL-08 R/B 4.4 15:56:50 10° S 16:03:05 77° W 16:09:24 10° N
PAYLOAD A 4.1 16:00:15 10° N 16:05:31 61° WNW 16:10:44 10° SSW
Cosmos 2237 4.4 16:03:32 10° SW 16:09:05 49° WNW 16:14:35 10° N
SL-16 R/B 4.4 16:05:48 10° SE 16:11:07 28° E 16:16:21 10° NNE
Cosmos 2278 3.9 16:05:21 10° SSW 16:11:08 75° ESE 16:16:48 10° NNE
ATLAS 2AS CENTAUR R/B 3.4 16:11:26 21° WNW 16:15:52 44° SW 16:22:50 10° SSE
Kakehashi 4.4 16:14:02 21° NW 16:17:16 34° N 16:22:43 10° ENE
Cosmos 2360 Rocket 3.1 16:12:10 10° SSW 16:17:44 52° ESE 16:23:15 10° NE
SL-08 RB Rocket 4.4 16:18:46 24° NW 16:20:29 31° W 16:24:30 10° SSW
Aureole 1 Rocket 4.0 16:15:22 10° SSW 16:21:22 82° WNW 16:28:27 10° NNE
Cosmos 1605 Rocket 4.4 16:15:53 10° S 16:22:13 67° E 16:28:33 10° NNE
Cosmos 2228 Rocket 3.4 16:20:48 20° NNW 16:23:47 51° W 16:28:19 10° S
Cosmos 1862 Rocket 4.4 16:23:33 23° WNW 16:25:36 34° WSW 16:29:44 10° S
Cosmos 1812 4.5 16:24:33 10° SSE 16:26:31 20° ESE 16:28:26 10° NE
COSMOS 2406 4.1 16:23:37 19° WNW 16:26:51 33° WSW 16:32:02 10° S
Cosmos 1328 4.2 16:26:38 24° NW 16:28:07 35° WSW 16:31:28 10° S
Cosmos 1400 Rocket 3.5 16:27:25 10° S 16:31:05 53° ESE 16:34:45 10° NNE
Lacrosse 5 rocket 1.7 16:30:26 21° W 16:32:27 39° SW 16:35:50 10° SSE
Atlas Centaur 2 3.4 16:31:21 10° N 16:32:40 12° NNE 16:34:00 10° NE
USA 229 DEB 3.3 16:30:21 10° SW 16:36:47 84° NW 16:42:33 10° NNE
USA 229 3.3 16:30:26 10° SW 16:36:52 86° WNW 16:42:38 10° NNE
CZ-3 Stage 3 4.4 16:30:37 16° WNW 16:38:04 53° N 17:10:35 10° ENE
Cosmos 1908 Rocket 3.5 16:38:17 10° S 16:42:41 84° W 16:47:01 10° N
Cosmos 1733 Rocket 4.3 16:39:58 10° SW 16:43:32 23° W 16:46:33 12° NW
Cosmos 2082 Rocket 4.2 16:42:12 10° WSW 16:45:05 14° SW 16:47:57 10° SSW
ATLAS 3B R/B 2.6 16:39:05 10° SW 16:45:27 89° WNW 16:52:11 10° NNE
H-2A R/B 3.9 16:45:30 10° SSW 16:47:53 17° WSW 16:49:38 13° W
USA 267 3.6 16:43:11 10° SE 16:49:46 65° NE 16:56:17 10° NW
ATLAS 5 CENTAUR R/B 3.4 16:44:21 10° SSW 16:49:49 41° SE 16:54:15 10° ENE
Okean 1-7 4.4 16:47:51 14° WNW 16:50:11 20° WSW 16:53:22 10° SSW
Cosmos 841 Rocket 3.8 16:47:22 10° NW 16:52:26 51° WSW 16:57:36 10° S
Cosmos 1869 4.0 16:52:17 10° S 16:55:54 53° E 16:59:27 10° NNE
IRS-1D 3.5 16:51:55 10° N 16:56:47 56° W 17:01:42 10° SSW
BlueWalker 3 2.0 16:54:37 10° WSW 16:58:12 49° NW 17:01:44 10° NNE
SL-16 R/B 2.7 16:53:24 10° SW 16:58:36 37° WNW 17:03:44 10° N
H-2A R/B 4.2 16:57:04 10° NNW 17:00:22 27° W 17:03:44 10° SW
Cosmos 372 Rocket 4.4 16:58:00 10° SW 17:02:47 39° WNW 17:07:29 10° N
Cosmos 1867 3.6 16:57:32 10° NW 17:02:57 81° WSW 17:08:24 10° SSE
Tiangong -0.4 17:04:44 10° NNW 17:07:31 26° NNE 17:10:20 10° E
Meteor 1-24 Rocket 4.4 17:05:07 10° NW 17:09:52 32° WSW 17:14:41 10° S
Cosmos 2333 Rocket 2.8 17:05:50 10° SW 17:11:07 37° WNW 17:16:22 10° N
Cosmos 1898 Rocket 3.9 17:08:18 10° SSW 17:13:13 42° WNW 17:18:06 10° N
Cosmos 1607 4.2 17:10:34 10° NNW 17:16:59 79° ENE 17:23:25 10° SE
